Wind_Speed
16 15 15 14 13 13 13 13 13 12 11 9 8 7 7 7 7 8 9 10 11 13 14 15 17 18 19 21 22 23 24 24 25 25 26 26 26 26 26 25 24 23 23 21
19 18 17 15 14 14 13 13 13 13 12 11 10 9 8 8 9 9 10 11 12 13 14 15 17 18 19 20 21 22 23 24 24 25 25 25 25 25 25 25 24 23 22 21
21 21 19 17 16 15 14 14 14 13 13 12 11 10 9 9 10 10 11 11 12 13 14 15 17 18 19 19 20 21 23 23 24 24 24 24 24 24 24 24 23 22 22 21
21 21 21 16 17 17 16 15 15 14 13 12 12 11 11 11 11 11 12 12 13 14 15 15 17 18 18 19 20 21 22 23 23 23 23 23 23 23 23 23 22 22 22 21
20 21 19 17 17 17 17 16 15 14 14 13 12 12 12 12 12 12 13 13 14 14 15 16 16 17 18 19 19 20 21 22 23 23 23 23 22 22 22 22 22 21 21 20
19 19 18 16 16 17 17 15 15 15 14 14 13 13 13 13 13 13 14 14 15 15 16 16 17 18 18 19 19 20 21 22 22 23 23 22 22 22 22 22 21 21 20 20
18 18 16 15 16 16 16 14 15 15 15 14 14 14 14 14 14 14 14 15 15 16 16 17 18 18 19 19 20 21 21 22 22 23 23 22 22 22 22 22 21 21 20 19
19 18 15 15 16 16 16 16 15 15 15 15 14 14 14 14 15 15 15 16 16 16 17 18 18 19 19 20 21 21 21 22 23 23 23 23 22 22 22 22 22 21 20 20
19 18 17 17 17 17 17 16 16 16 16 16 15 15 15 16 16 16 17 17 17 18 18 19 19 20 20 21 21 22 22 23 23 24 24 24 23 23 23 22 22 22 21 20
20 18 18 18 18 18 18 18 17 17 17 17 16 16 17 17 17 18 18 18 19 19 20 20 21 21 21 22 22 23 23 24 24 24 24 24 24 24 24 23 23 23 22 21
22 20 20 19 19 19 19 19 18 18 18 18 18 18 18 18 19 19 20 20 20 21 21 21 22 22 22 23 23 24 25 25 25 25 24 24 24 25 25 24 24 23 23 21
24 23 24 22 22 21 21 20 20 20 20 20 19 19 19 20 20 21 21 21 21 22 22 22 23 23 24 24 25 25 25 25 25 25 25 25 26 26 26 26 26 25 24 22
26 26 26 25 24 24 23 23 23 22 22 22 22 22 22 22 22 22 22 23 23 23 24 24 25 25 25 26 26 26 26 26 26 26 26 27 27 28 28 28 27 26 25 23
29 28 28 27 27 27 27 26 26 25 25 25 25 25 24 24 24 24 24 25 25 25 25 26 26 26 27 27 27 27 27 27 28 28 29 29 29 29 29 28 27 27 26 25
31 31 31 30 30 30 30 30 29 28 28 27 27 27 27 26 26 26 26 26 27 27 27 27 27 27 28 28 28 28 29 29 30 31 31 31 31 31 29 28 27 27 28 28
34 34 33 33 32 32 32 32 31 31 30 30 29 29 29 28 28 28 28 28 28 28 28 28 28 29 29 29 29 30 31 32 32 33 33 33 33 32 31 30 29 29 29 30
36 35 34 35 34 34 34 34 33 32 32 31 31 31 30 30 30 30 29 29 29 29 29 30 30 30 30 31 31 32 33 34 34 34 35 34 34 33 32 32 32 32 32 32
37 36 36 36 36 36 36 35 35 34 34 33 33 33 32 32 31 31 31 31 31 31 31 32 32 32 33 33 34 35 35 36 36 37 37 36 35 34 34 34 34 34 34 34
39 38 38 37 37 38 38 37 37 36 36 36 36 35 35 34 34 34 34 33 33 34 34 34 35 35 35 36 36 37 37 38 38 38 37 37 36 36 36 36 36 36 36 37
39 40 40 39 39 39 38 38 38 38 38 38 38 37 37 37 37 37 36 36 36 36 37 37 37 38 38 38 39 39 39 39 39 39 38 37 37 37 38 38 38 38 39 39
40 40 40 40 40 40 40 40 40 40 40 40 39 39 39 39 39 39 39 39 39 39 39 39 39 40 40 40 40 40 40 40 40 39 39 38 38 39 40 40 40 41 41 42
40 40 40 40 41 40 40 40 40 41 41 41 40 40 40 40 40 41 41 41 41 41 41 41 41 41 41 41 41 41 41 41 41 40 39 39 40 40 41 41 42 43 43 44
40 40 40 40 41 41 41 41 40 41 41 41 41 41 41 42 42 42 42 42 42 42 42 42 42 42 42 42 42 42 42 42 41 40 40 41 41 42 42 42 43 43 44 45
40 41 40 40 40 40 41 41 42 42 42 42 42 42 42 43 43 43 43 43 43 43 43 43 43 44 44 43 43 43 43 42 42 41 42 42 42 42 43 43 44 45 46 46
40 40 40 40 40 40 41 42 42 43 43 43 44 44 44 44 44 44 44 44 44 44 45 45 45 45 44 44 44 43 43 42 42 42 42 42 43 43 44 45 46 47 48 48
41 41 41 40 41 41 42 42 42 43 43 44 44 45 45 45 45 45 45 45 45 45 45 45 45 44 44 44 43 43 43 42 42 42 43 43 44 44 45 46 47 48 49 50
40 40 41 41 41 41 41 41 41 41 42 43 43 44 44 44 44 44 44 45 45 44 44 44 44 44 43 43 43 42 42 42 42 43 43 43 44 45 46 48 48 49 50 51
Wind_Direction
234 236 240 240 239 241 245 248 248 247 248 246 247 252 258 268 283 297 308 317 324 330 334 339 342 344 347 350 352 355 358 360 2 2 4 6 8 10 12 13 15 17 19 20
237 243 248 249 247 249 251 252 249 246 246 248 250 254 260 272 284 294 302 309 316 322 327 333 337 340 343 346 349 351 354 357 359 0 2 4 6 8 10 12 14 15 17 17
238 243 249 250 252 254 255 254 252 249 247 248 252 257 264 273 282 289 296 302 309 315 320 327 332 336 339 342 345 348 351 353 355 358 360 2 4 6 8 10 12 13 14 15
239 243 246 247 250 252 253 252 252 251 249 250 253 257 263 271 278 285 292 298 305 311 317 322 328 332 335 338 341 344 346 349 351 354 356 358 360 2 4 6 8 9 10 11
242 245 247 245 247 248 249 249 250 249 248 250 253 258 263 269 276 283 290 296 302 308 313 319 324 327 331 334 337 340 342 345 347 349 351 352 354 357 360 1 2 4 6 8
243 246 244 239 242 244 247 246 247 248 248 249 252 257 263 269 275 281 288 293 298 304 310 315 320 323 326 330 332 335 338 340 342 344 345 347 348 350 353 355 356 357 359 2
245 248 245 240 241 243 246 244 245 247 249 251 253 258 264 269 273 279 285 291 296 302 307 312 317 320 322 325 328 330 332 334 337 339 341 342 343 344 345 348 349 350 352 354
248 250 248 245 246 246 247 246 247 247 249 252 255 259 264 268 273 278 284 290 295 300 305 309 313 315 318 321 323 326 328 330 332 334 336 337 338 338 339 340 342 343 344 345
250 253 253 251 251 251 250 248 247 248 250 253 257 260 263 268 273 278 284 289 293 297 301 305 308 311 313 316 319 321 324 326 328 329 329 331 332 333 333 334 335 336 336 337
252 253 254 254 253 253 252 250 249 250 252 256 259 262 265 269 274 278 283 287 291 295 299 302 305 306 309 312 314 316 319 321 323 324 325 326 328 328 328 328 329 330 330 330
255 254 255 254 255 254 252 251 251 253 255 257 260 264 267 271 274 278 282 286 289 293 296 299 301 303 305 307 310 312 315 317 319 321 321 322 323 324 323 323 323 324 324 323
254 254 254 254 254 254 254 253 253 255 257 259 262 265 268 271 274 278 281 284 287 291 293 296 298 300 302 303 306 308 311 312 314 317 318 318 319 319 319 319 318 319 319 317
254 253 253 252 253 254 254 254 255 256 258 261 263 266 268 271 273 276 279 282 285 288 291 293 295 297 299 300 302 304 306 308 310 312 313 314 315 315 315 315 316 315 315 313
254 254 253 252 252 253 253 254 255 257 259 261 264 266 268 270 272 275 278 280 283 286 289 291 293 295 297 299 300 302 303 305 307 308 309 310 311 311 311 311 312 312 312 311
253 253 253 252 252 252 254 255 256 257 259 261 263 265 268 270 272 274 276 279 281 284 287 289 290 292 295 297 298 300 302 303 305 306 307 308 308 308 307 307 307 308 307 307
252 252 252 253 253 254 254 255 256 257 258 260 262 264 267 269 271 273 275 278 280 282 285 287 289 291 293 294 296 298 301 303 304 305 305 305 305 305 304 303 304 304 303 302
252 253 253 254 254 254 255 256 256 257 258 260 262 263 266 268 270 272 274 277 279 281 283 285 287 289 291 293 295 298 300 302 303 304 304 303 303 302 301 300 300 300 300 300
252 253 253 253 253 254 254 255 256 257 257 259 260 262 265 267 269 271 273 275 277 279 281 284 286 288 290 292 295 297 299 300 302 302 303 302 300 299 299 299 300 299 299 298
252 252 253 253 253 253 253 254 254 255 257 258 260 262 263 265 267 269 272 274 276 278 281 283 285 288 290 292 294 295 297 298 300 300 300 300 299 298 298 299 299 299 298 298
251 252 253 253 254 253 253 254 254 255 256 257 259 261 262 264 266 268 270 273 275 277 280 282 285 287 290 291 293 294 296 297 298 299 298 298 297 297 297 298 298 298 298 298
251 251 252 253 253 253 254 254 255 256 256 257 259 260 262 264 266 268 270 272 274 277 279 282 285 287 289 290 292 293 295 296 298 298 297 296 296 297 297 297 297 297 297 297
252 252 252 252 253 253 254 255 256 256 257 258 259 260 261 263 265 267 269 272 274 276 279 282 284 286 288 289 291 293 294 296 297 296 296 296 296 296 297 296 296 296 297 297
251 252 252 253 254 254 255 256 256 256 257 257 259 260 261 263 265 267 270 272 274 276 278 281 283 285 287 289 290 291 293 294 295 295 295 295 296 296 296 296 296 297 297 297
252 252 253 254 254 255 256 256 256 256 257 257 258 260 262 264 265 268 270 272 274 276 278 280 282 284 286 288 289 290 291 292 293 294 294 295 296 296 296 297 297 298 298 298
252 252 253 254 254 255 256 256 256 256 257 258 259 260 262 264 265 267 269 271 273 275 277 279 281 283 285 286 288 289 290 291 292 293 294 294 295 296 297 298 299 299 300 300
252 252 252 253 255 256 256 256 257 258 258 259 260 261 262 264 266 267 269 270 272 274 277 279 280 282 284 285 287 288 289 290 291 292 293 294 295 297 298 299 300 301 301 301
253 253 253 254 254 256 256 257 258 259 259 259 260 261 262 263 265 266 268 270 272 274 276 278 279 281 283 285 286 287 288 290 291 292 293 294 296 297 299 300 301 302 302 303
Height
5842 5843 5844 5845 5846 5847 5847 5848 5849 5850 5851 5852 5852 5853 5853 5852 5852 5851 5850 5849 5847 5845 5842 5839 5836 5832 5829 5824 5820 5815 5810 5805 5800 5795 5789 5784 5778 5773 5767 5762 5757 5752 5748 5743
5839 5840 5841 5842 5844 5844 5845 5845 5846 5847 5848 5848 5849 5850 5850 5850 5849 5849 5848 5846 5845 5843 5840 5837 5834 5831 5827 5823 5819 5815 5810 5805 5800 5795 5790 5785 5779 5774 5769 5764 5759 5755 5750 5746
5835 5836 5837 5839 5841 5841 5841 5842 5843 5844 5845 5845 5846 5846 5847 5847 5846 5846 5845 5844 5842 5840 5838 5835 5832 5829 5825 5822 5818 5813 5809 5805 5800 5795 5790 5785 5780 5775 5771 5766 5761 5757 5752 5748
5832 5834 5834 5839 5837 5837 5838 5838 5839 5840 5841 5842 5843 5843 5843 5843 5843 5842 5842 5841 5839 5838 5835 5833 5830 5827 5824 5820 5816 5812 5808 5804 5799 5795 5790 5785 5781 5776 5772 5767 5763 5758 5754 5750
5828 5829 5830 5834 5834 5834 5834 5835 5836 5837 5838 5838 5839 5839 5840 5840 5839 5839 5838 5837 5836 5834 5832 5830 5827 5824 5821 5818 5814 5810 5806 5802 5798 5794 5789 5785 5781 5777 5772 5768 5764 5759 5756 5751
5824 5824 5826 5830 5830 5829 5831 5832 5832 5833 5833 5834 5835 5836 5836 5836 5836 5835 5834 5833 5832 5831 5829 5827 5824 5821 5818 5815 5812 5808 5804 5800 5796 5792 5788 5784 5780 5776 5772 5768 5764 5760 5756 5752
5820 5820 5822 5825 5825 5826 5828 5829 5828 5828 5829 5830 5831 5832 5832 5832 5831 5831 5830 5830 5828 5827 5825 5823 5820 5818 5815 5812 5809 5805 5802 5798 5794 5790 5786 5782 5779 5775 5771 5767 5763 5760 5756 5752
5815 5816 5820 5820 5820 5822 5823 5823 5823 5824 5825 5826 5826 5827 5827 5827 5827 5827 5826 5825 5824 5822 5821 5819 5816 5814 5811 5808 5805 5802 5799 5795 5792 5788 5784 5780 5776 5773 5769 5766 5762 5759 5755 5752
5812 5814 5814 5815 5815 5816 5817 5818 5819 5819 5820 5821 5822 5822 5823 5823 5822 5822 5821 5820 5819 5818 5816 5814 5812 5810 5807 5805 5802 5798 5795 5792 5788 5785 5781 5777 5774 5770 5767 5763 5760 5757 5753 5750
5806 5807 5808 5809 5810 5811 5811 5812 5813 5814 5815 5816 5817 5817 5817 5817 5817 5817 5816 5815 5814 5813 5811 5809 5807 5805 5803 5800 5797 5794 5791 5788 5784 5781 5777 5774 5770 5767 5763 5760 5757 5754 5751 5748
5800 5801 5802 5803 5804 5805 5805 5807 5808 5809 5810 5810 5811 5812 5812 5812 5811 5811 5810 5809 5808 5807 5806 5804 5802 5800 5798 5795 5792 5790 5787 5783 5780 5777 5773 5770 5767 5763 5760 5756 5753 5750 5747 5744
5793 5795 5795 5797 5797 5798 5799 5800 5801 5802 5803 5804 5805 5805 5806 5805 5805 5805 5804 5803 5802 5801 5800 5798 5796 5794 5792 5789 5787 5784 5782 5778 5775 5772 5769 5766 5762 5759 5755 5752 5748 5745 5743 5740
5786 5787 5788 5789 5790 5791 5792 5794 5795 5796 5797 5797 5798 5798 5799 5799 5798 5798 5797 5797 5796 5795 5793 5792 5790 5788 5786 5783 5781 5778 5776 5773 5770 5767 5764 5761 5757 5754 5750 5747 5743 5740 5737 5735
5777 5778 5779 5781 5782 5784 5784 5786 5787 5788 5789 5790 5790 5791 5791 5791 5791 5791 5790 5789 5788 5787 5786 5785 5783 5781 5779 5776 5774 5772 5769 5766 5764 5761 5758 5754 5751 5748 5744 5741 5738 5734 5731 5729
5767 5768 5770 5772 5773 5774 5776 5777 5778 5780 5781 5782 5782 5782 5783 5783 5783 5783 5782 5781 5781 5780 5778 5777 5775 5773 5771 5769 5767 5764 5762 5759 5756 5753 5750 5747 5744 5741 5738 5735 5732 5729 5726 5723
5757 5758 5760 5762 5764 5765 5766 5768 5769 5770 5772 5772 5773 5773 5774 5774 5774 5774 5774 5773 5772 5771 5770 5769 5767 5765 5763 5761 5759 5757 5754 5751 5748 5745 5742 5739 5736 5733 5730 5727 5724 5722 5719 5716
5745 5748 5750 5751 5753 5754 5756 5758 5759 5760 5762 5763 5764 5764 5764 5765 5765 5765 5764 5764 5763 5762 5761 5760 5758 5757 5755 5753 5751 5748 5745 5742 5739 5736 5733 5730 5727 5724 5721 5719 5716 5713 5711 5708
5734 5736 5738 5740 5742 5743 5745 5747 5748 5750 5751 5752 5753 5754 5754 5755 5755 5755 5754 5754 5753 5753 5752 5751 5749 5747 5746 5744 5741 5739 5736 5733 5730 5727 5723 5720 5717 5715 5712 5709 5706 5704 5701 5698
5722 5724 5726 5728 5729 5731 5733 5735 5737 5738 5740 5741 5742 5743 5743 5744 5744 5744 5744 5744 5743 5743 5742 5741 5739 5737 5735 5733 5731 5728 5726 5723 5719 5716 5713 5710 5707 5704 5702 5699 5696 5693 5690 5687
5709 5711 5713 5715 5717 5719 5721 5723 5724 5726 5728 5729 5730 5731 5732 5733 5733 5733 5733 5733 5732 5732 5731 5730 5728 5726 5724 5722 5720 5717 5714 5711 5708 5705 5702 5699 5696 5693 5691 5688 5685 5682 5679 5675
5696 5698 5700 5702 5704 5706 5708 5710 5712 5714 5715 5716 5718 5719 5719 5720 5721 5721 5721 5721 5721 5720 5719 5718 5716 5715 5713 5711 5708 5706 5703 5700 5697 5694 5691 5688 5685 5682 5679 5676 5672 5669 5666 5662
5682 5684 5687 5689 5691 5693 5695 5697 5699 5700 5702 5703 5705 5706 5707 5707 5708 5708 5708 5708 5708 5707 5707 5705 5704 5702 5700 5698 5696 5694 5691 5688 5685 5682 5679 5676 5673 5670 5666 5663 5660 5656 5652 5649
5668 5670 5673 5675 5677 5679 5681 5683 5685 5687 5688 5690 5691 5692 5693 5694 5694 5695 5695 5695 5695 5694 5694 5692 5691 5690 5688 5686 5684 5681 5678 5676 5673 5670 5667 5663 5660 5657 5653 5650 5646 5642 5638 5634
5654 5657 5659 5661 5663 5665 5667 5669 5671 5673 5675 5676 5678 5679 5680 5680 5681 5681 5681 5681 5681 5681 5680 5679 5678 5676 5675 5673 5671 5668 5665 5663 5660 5657 5654 5650 5647 5644 5640 5636 5632 5628 5624 5620
5641 5643 5645 5647 5649 5651 5653 5655 5657 5659 5660 5662 5663 5665 5666 5667 5667 5668 5668 5668 5668 5667 5666 5665 5664 5663 5661 5659 5657 5655 5652 5649 5647 5644 5640 5637 5634 5630 5626 5622 5618 5614 5609 5604
5627 5629 5631 5633 5635 5637 5639 5641 5643 5644 5646 5647 5649 5650 5651 5652 5653 5654 5654 5654 5654 5653 5652 5651 5650 5649 5647 5645 5643 5641 5639 5636 5633 5630 5627 5624 5620 5616 5612 5608 5603 5599 5594 5589
5612 5615 5617 5620 5622 5623 5625 5627 5629 5630 5631 5633 5634 5635 5637 5638 5639 5639 5640 5640 5640 5639 5638 5638 5637 5635 5634 5632 5630 5627 5625 5622 5620 5617 5613 5610 5606 5602 5598 5593 5589 5584 5578 5573